Location: ????????
(56.1167°N, 38.6333°E)
Time: 20:20:25
(UTC+00:00)

Aureole 3 Rocket - Pass Details

Date: 18 November 2025
Orbit: 398 x 1690 km, 82.5° (Epoch: 14 December)

Event Time Altitude Azimuth Distance (km) Brightness Sun altitude
Rises 15:12:25 0° 181° (S) 2,303 6.2 -16.2°
Reaches altitude 10° 15:14:20 10° 178° (S) 1,457 5.1 -16.5°
Maximum altitude 15:17:20 60° 98° (E) 499 2.2 -16.9°
Enters shadow 15:18:38 32° 31° (NNE) 791 3.3 -17.1°
